Probability
1 1 0 0 0 0 0 0 0 0 0 0 0 0 0 0 0 0 0 0 0 0 0 0 0 0 0 0 0 0 0 0 0 0 0 0 0 0 0 0 0 0 0 0 0 0 0 0 0
1 0 0 0 0 0 0 0 0 0 0 0 0 0 0 0 0 0 0 0 0 0 0 0 0 0 0 0 0 0 0 0 0 0 0 0 0 0 0 0 0 0 0 0 0 0 0 0 0
0 0 0 0 0 0 0 0 0 0 0 0 0 0 0 0 0 0 0 0 0 0 0 0 0 0 0 0 0 0 0 0 0 0 0 0 0 0 0 0 0 0 0 0 0 0 0 0 0
0 0 0 0 0 0 0 0 0 0 0 0 0 0 0 0 0 0 0 0 0 0 0 0 0 0 0 0 0 0 0 0 0 0 0 0 0 0 0 0 0 0 0 0 0 0 0 0 0
0 0 0 0 0 0 0 0 0 0 0 0 0 0 0 0 0 0 0 0 0 0 0 0 0 0 0 0 0 0 0 0 0 0 0 0 0 0 0 0 0 0 0 0 0 0 0 0 0
0 0 0 0 0 0 0 0 0 0 0 0 0 0 0 0 0 0 0 0 0 0 0 0 0 0 0 0 0 0 0 0 0 0 0 0 0 0 0 0 0 0 0 0 0 0 0 0 0
0 0 0 0 0 0 0 0 0 0 0 0 0 0 0 0 0 0 0 0 0 0 0 0 0 0 0 0 0 0 0 0 0 0 0 0 0 0 0 0 0 0 0 0 0 0 0 0 0
0 0 0 0 0 0 0 0 0 0 0 0 0 0 0 0 0 0 0 0 0 0 0 0 0 0 0 0 0 0 0 0 0 0 0 0 0 0 0 0 0 0 0 0 0 0 0 0 0
0 0 0 0 0 0 0 0 0 0 0 0 0 0 0 0 0 0 0 0 0 0 0 0 0 0 0 0 0 0 0 0 0 0 0 0 0 0 0 0 0 0 0 0 0 0 0 0 0
0 0 0 0 0 0 0 0 0 0 0 0 0 0 0 0 0 0 0 0 0 0 0 0 0 0 0 0 0 0 0 0 0 0 0 0 0 0 0 0 0 0 0 0 0 0 0 0 0
0 0 0 0 0 0 0 0 0 0 0 0 0 0 0 0 0 0 0 0 0 0 0 0 0 0 0 0 0 0 0 0 0 0 0 0 0 0 0 0 0 0 0 0 0 0 0 0 0
0 0 0 0 0 0 0 0 0 0 0 0 0 0 0 0 0 0 0 0 0 0 0 0 0 0 0 0 0 0 0 0 0 0 0 0 0 0 0 0 0 0 0 0 0 0 0 0 0
0 0 0 0 0 0 0 0 0 0 0 0 0 0 0 0 0 0 0 0 0 0 0 0 0 0 0 0 0 0 0 0 0 0 0 0 0 0 0 0 0 0 0 0 0 0 0 0 0
0 0 0 0 0 0 0 0 0 0 0 0 0 0 0 0 0 0 0 0 0 0 0 0 0 0 0 0 0 0 0 0 0 0 0 0 0 0 0 0 0 0 0 0 0 0 0 0 0
0 0 0 0 0 0 0 0 0 0 0 0 0 0 0 0 0 0 0 0 0 0 0 0 0 0 0 0 0 0 0 0 0 0 0 0 0 0 0 0 0 0 0 0 0 0 0 0 0
0 0 0 0 0 0 0 0 0 0 0 0 0 0 0 0 0 0 0 0 0 0 0 0 0 0 0 0 0 0 0 0 0 0 0 0 0 0 0 0 0 0 0 0 0 0 0 0 0
0 0 0 0 0 0 0 0 0 0 0 0 0 0 0 0 1 1 1 1 1 0 0 0 0 0 1 2 3 2 1 0 0 0 0 0 0 0 0 0 0 0 0 0 0 0 0 0 0
0 0 0 0 0 0 0 0 0 0 0 0 0 0 0 0 1 1 2 3 3 2 1 1 1 4 10 15 17 14 9 5 3 1 1 0 0 0 0 0 0 0 0 0 0 0 0 0 0
0 0 0 0 0 0 0 0 0 0 0 0 0 0 0 0 1 3 6 8 8 7 5 3 4 12 27 38 41 37 27 18 12 6 3 1 0 0 0 0 0 0 0 0 0 0 0 0 0
0 0 0 0 0 0 0 0 0 0 0 0 0 0 0 1 2 6 12 18 20 19 13 8 11 24 44 61 65 60 51 38 27 17 9 3 1 1 0 0 0 0 0 0 0 0 0 0 0
0 0 0 0 0 0 0 0 0 0 0 0 0 0 0 1 3 7 15 24 33 35 27 18 20 36 59 76 79 75 69 56 42 30 18 7 3 2 1 0 0 0 0 0 0 0 0 0 1
0 0 0 0 0 0 0 0 0 0 0 0 0 0 0 0 2 5 12 22 34 44 41 31 31 46 68 83 84 78 69 57 46 37 25 11 5 2 1 0 0 0 0 0 0 0 0 1 2
0 0 0 0 0 0 0 0 0 0 0 0 0 0 0 0 1 4 9 16 26 40 48 46 44 54 72 82 80 69 57 45 39 35 25 15 9 4 1 1 0 0 1 0 0 0 0 1 3
0 0 0 0 0 0 0 0 0 0 0 0 0 0 0 0 1 2 5 11 19 31 44 51 53 58 66 70 64 53 42 34 31 29 22 16 12 7 3 1 0 0 0 0 0 1 0 0 1
0 0 0 0 0 0 0 0 0 1 0 0 0 0 0 0 0 1 3 6 12 20 31 40 46 48 49 49 43 34 28 28 27 22 16 13 10 6 3 1 0 0 0 0 0 0 0 0 0
0 0 0 0 0 0 0 0 0 0 0 0 0 0 0 0 0 0 1 3 4 8 15 22 28 29 30 30 26 19 17 21 21 15 10 7 5 3 1 0 0 0 0 0 0 0 0 0 0
0 0 0 0 0 0 0 0 0 0 0 0 0 0 0 0 0 0 0 1 1 1 4 8 12 14 15 18 16 13 11 12 12 9 5 2 1 1 0 0 0 0 0 0 0 0 0 0 0
0 0 0 0 0 0 0 0 0 0 0 0 0 0 0 0 0 0 0 0 0 0 0 1 3 5 8 10 11 9 6 5 5 4 2 0 0 0 0 0 0 0 0 0 0 0 0 0 0
0 0 0 0 0 0 0 0 0 0 0 0 0 0 0 0 0 0 0 0 0 0 0 0 1 2 4 5 5 5 4 2 2 1 0 0 0 0 0 0 0 0 0 0 0 0 0 0 0
0 0 0 0 0 0 0 0 0 0 0 0 0 0 0 0 0 0 0 0 0 0 0 0 0 1 2 2 3 3 3 2 1 0 1 1 1 0 0 0 0 0 0 0 0 0 0 0 0
Wind_Speed
4 3 3 4 3 6 11 8 5 5 5 5 4 3 4 4 4 5 7 13 14 15 15 16 14 14 14 13 12 12 12 12 11 11 11 10 10 9 9 9 9 9 8 8 7 7 7 7 6
4 2 4 4 3 9 10 6 6 6 6 5 4 2 3 5 6 7 9 12 15 15 14 14 15 14 13 13 12 12 12 11 11 11 10 10 9 9 9 9 9 9 9 9 8 7 7 7 6
3 4 3 1 5 8 9 5 5 5 4 1 2 3 4 5 6 7 10 14 15 14 13 14 14 14 13 12 12 12 11 11 11 10 10 9 9 8 8 8 9 9 9 9 8 8 8 7 6
3 3 3 3 8 6 4 4 3 5 3 1 1 4 5 5 4 8 13 14 14 13 12 14 14 13 12 12 12 11 11 11 10 10 10 9 9 8 8 8 8 9 9 10 9 8 8 7 6
3 3 3 6 6 4 1 1 2 2 1 2 1 4 6 5 6 11 14 13 14 13 12 14 14 13 12 12 12 11 11 11 10 10 10 9 8 8 8 7 8 8 9 9 8 8 8 7 7
2 3 3 5 6 3 2 2 3 1 1 2 1 3 6 7 9 12 12 12 13 13 12 13 14 13 12 12 12 11 11 11 11 10 10 9 8 8 7 7 7 7 8 8 8 7 7 7 7
3 1 2 4 5 4 3 1 1 0 1 2 1 2 6 8 9 12 11 11 11 12 12 12 14 14 13 12 12 11 11 11 11 11 10 9 8 8 7 7 6 7 7 7 7 6 6 6 6
3 1 4 3 4 4 3 1 1 1 2 3 1 1 4 11 12 11 10 10 11 12 11 11 11 12 12 13 13 11 11 11 11 11 10 9 9 8 7 8 7 6 6 6 6 6 6 6 7
4 4 3 2 2 4 2 1 3 1 3 3 1 3 5 14 14 12 11 10 10 10 11 10 10 10 9 10 12 12 11 10 11 11 11 10 9 9 9 7 7 6 6 6 5 5 4 4 8
3 2 3 3 2 2 2 1 2 3 3 3 4 4 9 14 14 13 12 12 13 12 12 10 10 10 9 7 8 8 9 9 10 9 11 8 6 5 4 10 6 6 6 6 5 4 5 7 6
1 2 3 2 2 2 1 2 1 2 1 2 2 7 13 14 14 13 12 12 12 12 11 10 10 10 9 7 6 5 5 6 8 9 9 6 6 5 5 6 7 7 8 7 7 7 4 3 3
0 2 2 2 3 2 2 1 1 2 6 7 6 6 14 15 15 14 12 11 11 11 11 11 11 10 10 8 6 6 5 6 6 7 9 6 4 5 5 4 5 5 4 4 3 2 4 2 3
1 1 2 2 2 2 2 1 1 5 10 8 4 8 14 14 13 12 11 11 11 11 11 11 11 11 10 9 6 6 6 6 7 6 7 8 6 6 5 5 4 5 4 5 4 3 3 3 2
2 1 1 2 1 1 2 2 3 8 10 7 3 4 9 11 11 10 11 11 11 11 11 11 12 11 11 9 8 7 7 6 6 6 8 9 6 6 5 6 5 5 5 4 4 3 3 3 2
2 4 2 1 1 2 2 3 7 10 9 7 5 2 2 5 8 9 9 10 10 10 11 11 11 12 12 11 9 7 6 7 7 6 9 9 8 7 6 5 6 6 6 6 4 3 2 2 3
4 5 5 2 2 2 6 1 9 10 9 9 9 6 3 3 6 7 8 10 10 10 11 11 10 12 12 11 9 7 7 7 7 7 7 10 10 9 6 5 6 6 5 5 4 4 4 3 3
5 6 4 1 2 3 3 2 8 9 9 9 9 9 7 5 6 7 8 10 11 12 12 12 13 13 12 11 9 8 8 7 7 7 7 9 10 10 7 5 5 6 5 5 5 5 4 4 4
4 5 4 3 2 3 1 2 6 8 9 9 9 9 9 9 9 9 9 9 10 12 13 14 13 14 12 10 9 8 8 7 7 7 7 9 9 10 8 6 7 6 5 5 6 6 5 4 4
5 6 6 3 3 3 1 1 4 7 9 10 11 11 12 12 11 10 10 9 9 11 13 14 14 14 11 9 9 8 8 7 6 6 8 9 10 10 9 7 7 7 6 7 8 6 7 5 5
5 7 6 2 1 4 3 1 4 6 8 10 11 12 14 14 14 13 12 10 9 10 12 14 14 14 13 9 8 6 6 5 5 5 6 8 9 9 8 9 7 8 7 9 9 8 6 5 6
4 6 7 8 5 5 6 6 7 4 5 9 11 12 13 14 15 15 14 13 11 10 10 10 12 12 11 11 7 5 5 3 3 4 4 6 8 9 9 9 8 8 8 7 9 9 9 7 7
5 7 8 9 10 8 6 9 5 2 2 10 13 14 15 15 15 15 15 14 13 11 9 8 9 9 10 11 9 9 5 4 2 0 2 4 6 8 8 9 8 8 7 7 8 9 8 9 7
8 10 10 10 11 12 10 10 3 3 6 12 14 15 15 15 15 15 14 13 12 11 8 4 3 5 7 10 10 8 6 4 3 1 2 3 4 6 7 7 7 8 7 8 8 8 9 8 8
9 10 10 10 10 13 10 10 2 6 11 14 15 16 16 15 15 14 13 12 11 10 8 5 4 6 8 9 9 10 9 6 4 1 2 3 3 4 6 6 7 7 6 7 7 8 10 9 9
11 10 6 6 7 6 2 3 7 9 11 13 15 16 16 15 14 14 13 11 10 10 9 7 7 8 9 10 9 9 9 7 4 2 3 4 3 3 5 6 6 5 6 6 6 7 8 9 10
9 9 7 7 6 4 2 1 8 9 11 13 13 14 15 15 14 13 11 9 8 8 8 7 8 8 8 8 8 7 7 4 3 3 4 4 3 3 3 5 4 4 4 5 5 5 6 6 8
9 7 6 8 8 7 1 4 4 13 16 17 17 17 17 16 14 12 10 8 7 7 8 7 7 7 6 6 6 5 5 4 4 4 4 3 4 3 4 4 4 4 4 4 4 4 5 5 6
8 8 5 5 5 4 1 5 8 17 18 18 18 18 18 17 13 11 9 6 6 6 6 6 5 5 4 4 3 3 2 2 2 3 4 4 5 4 5 4 4 4 4 4 3 3 3 5 5
10 8 6 5 3 4 2 5 8 12 14 15 16 17 16 15 12 10 9 8 7 6 6 6 6 5 4 3 2 2 2 2 2 3 3 4 4 5 5 5 4 4 4 4 4 4 4 5 5
7 8 7 5 4 4 2 4 8 11 11 13 15 15 15 14 13 11 10 10 9 9 8 7 6 5 4 3 2 2 2 3 3 3 3 3 3 3 4 4 4 4 4 3 4 4 4 4 4
Wind_Direction
245 211 204 225 201 95 84 86 89 95 80 73 65 42 33 25 352 52 114 153 145 148 145 149 150 148 148 146 145 143 139 136 134 131 127 123 118 113 108 101 97 94 91 93 97 99 100 103 110
298 228 231 238 114 96 90 93 87 72 96 105 88 58 62 67 51 95 137 149 150 149 150 150 149 150 150 150 149 146 143 141 141 137 132 128 123 116 109 103 97 93 89 87 87 91 93 92 99
244 251 265 132 79 78 89 85 85 100 113 98 81 51 41 61 98 122 139 150 154 151 152 142 153 153 153 153 152 150 148 148 148 144 138 133 128 121 114 107 100 93 88 84 82 83 84 83 86
252 233 230 117 92 77 67 92 124 138 134 63 76 94 81 70 101 121 139 155 154 155 156 147 157 155 156 156 155 154 153 153 154 151 145 140 134 127 118 112 104 97 90 83 79 79 76 73 75
258 257 153 116 98 91 86 75 158 162 91 75 44 84 100 97 108 131 148 157 160 160 160 154 161 161 161 161 160 159 159 159 159 156 152 147 141 133 125 118 110 102 94 86 80 77 75 70 70
258 246 155 116 103 101 105 148 191 194 92 126 124 89 99 123 142 148 153 164 164 164 165 158 162 167 168 167 167 167 167 167 164 162 158 153 148 139 132 124 116 106 99 92 85 79 76 73 75
301 257 132 124 128 116 74 109 219 358 87 96 75 86 119 145 151 156 158 165 166 167 171 169 168 173 175 176 176 175 175 173 170 167 162 158 152 147 140 133 125 115 106 99 92 86 78 75 82
324 233 158 154 150 103 66 130 26 309 60 92 214 19 133 152 157 160 159 165 170 174 177 178 175 178 179 179 181 182 181 179 176 172 166 160 155 155 151 158 134 127 116 107 99 94 85 83 90
282 240 180 144 151 100 73 139 105 119 134 150 163 24 98 142 158 164 165 171 176 181 184 185 182 186 186 182 172 184 184 182 180 177 170 176 180 168 173 130 132 139 127 116 107 101 103 120 116
285 257 79 59 44 65 57 42 132 183 182 180 158 127 139 155 170 176 179 180 182 187 191 189 193 186 190 186 178 190 186 182 194 184 177 192 179 164 151 120 152 144 136 134 118 129 181 218 151
322 22 68 73 32 353 15 61 137 253 268 336 246 174 167 175 183 188 190 188 187 189 189 196 196 194 194 189 191 189 188 185 198 191 180 188 177 166 173 164 167 167 176 167 153 193 179 173 111
305 69 41 40 21 332 351 26 65 5 358 338 301 205 180 188 192 196 195 192 189 192 192 197 199 195 200 198 193 199 192 188 189 196 190 182 190 193 173 188 172 174 174 162 181 177 153 175 166
231 81 49 11 338 333 318 2 40 35 352 333 306 198 191 196 198 199 200 198 198 196 197 202 201 204 201 200 199 205 202 197 191 191 199 191 191 196 181 187 179 192 174 177 184 205 162 183 166
5 324 338 352 350 22 348 67 60 15 351 1 13 193 203 204 209 205 205 209 208 206 203 201 204 207 207 200 200 205 201 200 204 190 205 199 196 201 188 196 185 192 191 188 197 190 189 192 167
280 266 223 84 1 32 286 122 46 7 360 19 24 40 244 230 228 231 225 224 223 216 214 206 207 208 210 209 205 205 204 199 203 197 208 204 200 203 198 203 191 194 195 195 206 181 212 184 172
242 245 238 113 7 351 280 215 40 11 18 28 22 21 350 290 267 259 256 247 240 232 226 213 206 212 210 209 204 206 208 205 203 201 208 211 206 209 204 207 205 200 198 207 196 214 210 188 196
228 254 262 169 50 345 317 45 39 23 27 32 26 18 9 355 331 314 294 274 259 246 237 227 212 213 211 207 203 209 208 205 209 206 207 214 213 212 206 213 215 202 203 214 213 212 219 205 200
290 282 273 277 35 331 340 65 50 39 37 34 25 18 12 5 354 339 322 300 279 259 243 235 223 214 208 203 205 202 211 207 211 211 211 216 220 219 217 212 218 213 211 220 222 216 222 228 211
308 286 281 316 12 305 293 53 65 53 42 32 24 16 11 3 356 350 338 318 289 264 248 237 229 216 205 196 198 196 201 204 208 215 219 219 225 225 221 224 221 214 217 221 225 216 214 217 211
288 282 283 280 9 295 272 239 111 71 50 32 20 12 6 357 354 353 345 336 316 287 259 243 228 217 205 196 192 193 191 198 203 209 222 226 229 228 227 226 226 223 224 224 223 218 217 216 210
312 321 315 303 295 244 259 227 169 120 64 35 22 12 5 358 351 349 344 340 330 311 279 252 234 218 200 185 176 158 154 156 176 203 217 230 233 233 230 235 233 233 229 225 222 217 216 214 217
321 352 313 291 274 262 251 269 173 112 52 21 11 5 0 356 350 348 345 343 336 326 308 266 236 214 188 172 168 163 161 154 137 212 236 244 240 237 231 233 233 232 229 228 226 221 220 217 214
338 319 294 280 269 267 244 257 174 69 13 3 0 357 355 353 349 347 347 346 343 341 335 311 218 182 159 158 157 147 128 113 94 39 294 258 243 236 230 230 231 231 229 229 227 222 221 219 217
328 298 266 249 254 252 251 250 116 40 3 352 353 353 352 350 348 347 348 353 357 1 7 20 88 116 128 133 135 131 122 113 110 135 252 252 239 233 225 223 228 231 230 228 225 224 221 226 225
350 330 287 251 238 256 284 249 72 35 10 357 350 350 350 349 348 347 349 356 3 15 29 50 80 99 114 120 118 120 120 125 138 187 231 230 223 221 212 211 220 222 227 228 224 227 226 226 229
355 346 330 304 298 309 304 91 85 30 12 1 356 353 349 349 350 350 351 358 10 25 32 46 75 90 101 111 116 118 121 127 146 197 217 216 216 208 188 200 204 206 211 215 217 229 229 231 231
348 358 336 295 290 277 260 97 80 10 5 0 358 355 352 350 350 352 359 11 17 24 30 37 62 82 94 101 107 118 132 146 167 189 199 197 191 170 168 179 180 177 185 202 204 218 223 229 230
9 342 317 305 306 292 354 52 9 356 352 350 352 351 348 348 352 359 5 14 23 26 23 29 45 68 75 85 98 107 121 147 161 182 199 187 167 155 161 168 162 163 164 177 191 206 209 221 224
9 6 343 304 306 319 344 58 12 353 347 347 349 349 349 352 359 10 13 22 31 31 29 30 34 44 46 43 63 94 118 145 163 177 180 171 165 168 170 163 160 156 161 167 174 194 193 213 218
19 3 343 337 358 358 344 44 9 355 352 354 353 352 354 360 10 22 26 26 28 26 23 26 28 36 37 47 71 97 129 154 164 160 155 162 155 167 172 162 165 156 163 174 179 180 194 210 217